Regional Weather Roundup
Issued by NWS Cleveland, OH

Home | Current Version | Previous Version | Graphics & Text | Print | Product List | Glossary On
Versions: 1 2 3 4 5 6 7 8 9 10 11 12 13 14 15 16 17 18 19 20 21 22 23 24 25 26 27 28 29 30 31 32 33 34 35 36 37 38 39 40 41 42 43 44 45 46 47 48 49 50
271
ASUS41 KCLE 031402
RWRCLE
OHIO REGIONAL WEATHER ROUNDUP
NATIONAL WEATHER SERVICE CLEVELAND, OH
900 AM EST SAT DEC 03 2016

NOTE: "FAIR" INDICATES FEW OR NO CLOUDS BELOW 12,000 FEET WITH NO
SIGNIFICANT WEATHER AND/OR OBSTRUCTIONS TO VISIBILITY.

OHZ001>008-015>018-024>027-034-035-043-044-031500-
   NORTHWEST OHIO

CITY           SKY/WX    TMP DP  RH WIND       PRES   REMARKS
DEFIANCE       CLOUDY    37  28  70 CALM      30.34R
FINDLAY        CLOUDY    35  28  75 W6        30.32R
TOLEDO EXPRESS CLOUDY    35  31  85 W7        30.32R WCI  29
TOLEDO EXEC    CLOUDY    37  31  78 W8        30.33R
LIMA           CLOUDY    36  25  64 W8        30.32R
$$

OHZ009>014-019>023-028>033-038-089-031500-
   NORTHEAST OHIO

CITY           SKY/WX    TMP DP  RH WIND       PRES   REMARKS
CLE-HOPKINS    CLOUDY    37  30  75 W7        30.32R
CLE-LAKEFRONT  CLOUDY    39  32  76 W12       30.29S
CUY CO. ARPT   CLOUDY    39  34  81 W12       30.28S
LORAIN-ELYRIA  CLOUDY    35  28  75 W6        30.31S
ASHTABULA      CLOUDY    38  32  79 W7        30.26R
AKRON-CANTON   LGT SNOW  34  30  85 W7        30.29S VSB 1   WCI  28
WOOSTER        CLOUDY    33  28  81 W7        30.30S WCI  27
MANSFIELD      CLOUDY    33  27  78 W6        30.29F WCI  28
YOUNGSTOWN     FLURRIES  36  30  79 W10       30.26R
$$

OHZ042-051>053-060>062-070>072-077>081-031500-
  SOUTHWEST OHIO

CITY           SKY/WX    TMP DP  RH WIND       PRES   REMARKS
CINC-COVINGTON CLOUDY    37  34  89 CALM      30.36R
CINC-LUNKEN    CLOUDY    39  33  79 CALM      30.38R
HAMILTON       CLOUDY    38  32  79 NW6       30.38R
DAYTON         CLOUDY    36  31  82 W8        30.35R
WRIGHT-PAT AFB CLOUDY    37  33  83 W5        30.35R
DAYTON GENERAL CLOUDY    37  31  78 W5        30.34R
WILMINGTON     CLOUDY    36  33  89 W5        30.34R
$$

OHZ036-037-039>041-045>050-054>059-063>069-073>076-082>088-031500-
  CENTRAL AND SOUTHEAST OHIO

CITY           SKY/WX    TMP DP  RH WIND       PRES   REMARKS
COLUMBUS       CLOUDY    37  32  82 CALM      30.33R
OSU AIRPORT    CLOUDY    37  32  82 NW3       30.33R
BOLTON FIELD   CLOUDY    36  32  87 CALM      30.34R
RICKENBACK AFB NOT AVBL
NEWARK         CLOUDY    32  28  85 CALM      30.33R
MARION         CLOUDY    33  28  81 W3        30.33R
LANCASTER      CLOUDY    37  33  85 CALM      30.34R
ZANESVILLE     CLOUDY    33  27  78 CALM      30.33R
NEW PHILLY     CLOUDY    35  29  78 SW3       30.33R
$$




USA.gov is the U.S. government's official web portal to all federal, state and local government web resources and services.